ALK405 VTBS-VCBI

Flight info

Callsign ALK405
Flight time 3h 7m
Altitude 40000
Route PASTO1F PASTO L301 DWI P762 ESPAP DORTA2A
Aircraft A332/H-SDE3GHIJ2J3J5M1RVWXY/LB2D1

Departure

Time 2026-04-25 01:35
Airport Suvarnabhumi Airport (VTBS)

Arrival

Time 2026-04-25 04:42
Airport Bandaranaike International Colombo Airport (VCBI)
Time Latitude Longitude Altitude Speed Heading
2026-04-25 00:58 13.68822 100.74646 17 ft 0 kts 284°
2026-04-25 01:20 13.68822 100.74647 17 ft 2 kts 284°
2026-04-25 01:20 13.68817 100.74672 20 ft 4 kts 278°
2026-04-25 01:21 13.68815 100.74700 20 ft 4 kts 265°
2026-04-25 01:21 13.68820 100.74725 21 ft 4 kts 229°
2026-04-25 01:21 13.68831 100.74734 21 ft 0 kts 194°
2026-04-25 01:24 13.68825 100.74732 18 ft 2 kts 194°
2026-04-25 01:24 13.68810 100.74728 17 ft 2 kts 194°
2026-04-25 01:24 13.68764 100.74717 17 ft 10 kts 193°
2026-04-25 01:24 13.68712 100.74687 17 ft 8 kts 242°
2026-04-25 01:25 13.68715 100.74625 17 ft 10 kts 280°
2026-04-25 01:25 13.68733 100.74551 19 ft 12 kts 285°
2026-04-25 01:25 13.68754 100.74464 17 ft 13 kts 284°
2026-04-25 01:25 13.68778 100.74367 17 ft 15 kts 284°
2026-04-25 01:26 13.68806 100.74258 17 ft 17 kts 284°
2026-04-25 01:26 13.68825 100.74183 17 ft 1 kts 284°
2026-04-25 01:26 13.68834 100.74149 19 ft 7 kts 284°
2026-04-25 01:26 13.68826 100.74105 19 ft 5 kts 220°
2026-04-25 01:27 13.68784 100.74093 18 ft 9 kts 193°
2026-04-25 01:27 13.68688 100.74068 18 ft 17 kts 194°
2026-04-25 01:27 13.68568 100.74036 18 ft 19 kts 194°
2026-04-25 01:28 13.68301 100.73966 17 ft 21 kts 194°
2026-04-25 01:28 13.68153 100.73927 17 ft 23 kts 194°
2026-04-25 01:28 13.67997 100.73886 17 ft 24 kts 194°
2026-04-25 01:28 13.67834 100.73843 16 ft 25 kts 194°
2026-04-25 01:29 13.67664 100.73800 17 ft 26 kts 194°
2026-04-25 01:29 13.67551 100.73769 17 ft 9 kts 195°
2026-04-25 01:29 13.67529 100.73721 17 ft 8 kts 269°
2026-04-25 01:29 13.67541 100.73655 17 ft 10 kts 283°
2026-04-25 01:30 13.67561 100.73577 17 ft 12 kts 284°
2026-04-25 01:30 13.67584 100.73489 18 ft 13 kts 285°
2026-04-25 01:30 13.67601 100.73415 18 ft 8 kts 269°
2026-04-25 01:30 13.67565 100.73390 18 ft 7 kts 194°
2026-04-25 01:31 13.67486 100.73371 18 ft 16 kts 194°
2026-04-25 01:31 13.67404 100.73350 17 ft 20 kts 194°
2026-04-25 01:31 13.67265 100.73313 17 ft 21 kts 194°
2026-04-25 01:31 13.67116 100.73274 16 ft 23 kts 194°
2026-04-25 01:32 13.66961 100.73233 16 ft 23 kts 194°
2026-04-25 01:32 13.66800 100.73191 16 ft 24 kts 194°
2026-04-25 01:32 13.66632 100.73148 16 ft 25 kts 194°
2026-04-25 01:32 13.66526 100.73120 17 ft 11 kts 194°
2026-04-25 01:33 13.66485 100.73086 19 ft 7 kts 251°
2026-04-25 01:33 13.66490 100.73031 17 ft 9 kts 285°
2026-04-25 01:33 13.66518 100.72968 17 ft 10 kts 307°
2026-04-25 01:33 13.66552 100.72941 17 ft 6 kts 342°
2026-04-25 01:34 13.66597 100.72946 17 ft 8 kts 14°
2026-04-25 01:34 13.66726 100.72980 16 ft 44 kts 14°
2026-04-25 01:34 13.67254 100.73119 16 ft 110 kts 14°
2026-04-25 01:34 13.68189 100.73365 23 ft 166 kts 13°
2026-04-25 01:35 13.69397 100.73679 506 ft 183 kts 17°
2026-04-25 01:35 13.70629 100.74019 1323 ft 184 kts 16°
2026-04-25 01:35 13.71875 100.74370 2082 ft 189 kts 16°
2026-04-25 01:35 13.73205 100.74738 2631 ft 207 kts 15°
2026-04-25 01:36 13.74640 100.75153 3188 ft 222 kts 20°
2026-04-25 01:36 13.76159 100.75700 3750 ft 241 kts 19°
2026-04-25 01:36 13.77821 100.76197 4394 ft 257 kts 16°
2026-04-25 01:36 13.79606 100.76607 5083 ft 269 kts 14°
2026-04-25 01:37 13.81455 100.77046 5809 ft 276 kts 16°
2026-04-25 01:37 13.83348 100.77545 6568 ft 285 kts 17°
2026-04-25 01:37 13.85278 100.78107 7317 ft 292 kts 18°
2026-04-25 01:37 13.87212 100.78717 8099 ft 298 kts 18°
2026-04-25 01:38 13.89227 100.79304 8903 ft 303 kts 17°
2026-04-25 01:38 13.91245 100.79866 9610 ft 297 kts 16°
2026-04-25 01:38 13.93241 100.80359 9942 ft 294 kts 11°
2026-04-25 01:38 13.95284 100.80390 10009 ft 297 kts 350°
2026-04-25 01:39 13.97173 100.79549 10013 ft 300 kts 324°
2026-04-25 01:39 13.98720 100.78096 10021 ft 309 kts 315°
2026-04-25 01:39 14.00265 100.76405 10022 ft 336 kts 314°
2026-04-25 01:39 14.01877 100.74618 10019 ft 344 kts 314°
2026-04-25 01:40 14.03520 100.72811 10015 ft 345 kts 314°
2026-04-25 01:40 14.05127 100.71050 10015 ft 329 kts 314°
2026-04-25 01:40 14.06428 100.69204 10064 ft 310 kts 295°
2026-04-25 01:40 14.07007 100.67132 10509 ft 297 kts 281°
2026-04-25 01:41 14.07367 100.64990 10834 ft 313 kts 279°
2026-04-25 01:41 14.07710 100.62692 11157 ft 336 kts 278°
2026-04-25 01:41 14.08070 100.60271 11709 ft 347 kts 278°
2026-04-25 01:41 14.08442 100.57786 12386 ft 354 kts 278°
2026-04-25 01:42 14.08821 100.55270 13197 ft 357 kts 279°
2026-04-25 01:42 14.09205 100.52734 13925 ft 361 kts 279°
2026-04-25 01:42 14.09595 100.50165 14597 ft 365 kts 279°
2026-04-25 01:42 14.09988 100.47576 15291 ft 368 kts 279°
2026-04-25 01:43 14.10384 100.44962 15993 ft 371 kts 279°
2026-04-25 01:43 14.10783 100.42333 16677 ft 373 kts 279°
2026-04-25 01:43 14.11184 100.39681 17354 ft 376 kts 279°
2026-04-25 01:43 14.11586 100.37002 17997 ft 380 kts 278°
2026-04-25 01:44 14.11790 100.34319 18579 ft 383 kts 269°
2026-04-25 01:44 14.11584 100.31576 19128 ft 386 kts 263°
2026-04-25 01:44 14.11211 100.28791 19683 ft 389 kts 262°
2026-04-25 01:44 14.10821 100.26060 20188 ft 393 kts 262°
2026-04-25 01:45 14.10416 100.23222 20713 ft 397 kts 262°
2026-04-25 01:45 14.10023 100.20441 21227 ft 400 kts 262°
2026-04-25 01:45 14.09622 100.17589 21711 ft 404 kts 262°
2026-04-25 01:45 14.09218 100.14707 22197 ft 408 kts 262°
2026-04-25 01:46 14.08811 100.11805 22721 ft 411 kts 262°
2026-04-25 01:46 14.08402 100.08879 23229 ft 414 kts 262°
2026-04-25 01:46 14.07990 100.05931 23712 ft 418 kts 262°
2026-04-25 01:46 14.07574 100.02961 24126 ft 420 kts 262°
2026-04-25 01:47 14.07155 99.99972 24561 ft 423 kts 262°
2026-04-25 01:47 14.06733 99.96964 24986 ft 425 kts 262°
2026-04-25 01:47 14.06309 99.93945 25421 ft 427 kts 262°
2026-04-25 01:47 14.05882 99.90908 25854 ft 429 kts 263°
2026-04-25 01:48 14.05453 99.87853 26259 ft 432 kts 262°
2026-04-25 01:48 14.05021 99.84781 26654 ft 435 kts 262°
2026-04-25 01:48 14.04586 99.81694 27046 ft 438 kts 263°
2026-04-25 01:48 14.04146 99.78577 27419 ft 441 kts 263°
2026-04-25 01:49 14.03705 99.75450 27824 ft 443 kts 263°
2026-04-25 01:49 14.03260 99.72301 28215 ft 446 kts 262°
2026-04-25 01:49 14.02812 99.69134 28622 ft 448 kts 263°
2026-04-25 01:49 14.02361 99.65950 29012 ft 451 kts 263°
2026-04-25 01:50 14.01907 99.62742 29353 ft 454 kts 263°
2026-04-25 01:50 14.01449 99.59517 29694 ft 457 kts 263°
2026-04-25 01:50 14.00988 99.56268 30081 ft 460 kts 263°
2026-04-25 01:50 14.00529 99.53001 30419 ft 462 kts 263°
2026-04-25 01:51 14.00298 99.49701 30743 ft 463 kts 271°
2026-04-25 01:51 14.00438 99.46391 31062 ft 464 kts 275°
2026-04-25 01:51 14.00702 99.43071 31381 ft 466 kts 276°
2026-04-25 01:51 14.01028 99.39744 31703 ft 468 kts 276°
2026-04-25 01:52 14.01376 99.36408 32019 ft 470 kts 276°
2026-04-25 01:52 14.01727 99.33057 32340 ft 471 kts 276°
2026-04-25 01:52 14.02070 99.29703 32760 ft 470 kts 276°
2026-04-25 01:52 14.02402 99.26361 33238 ft 468 kts 276°
2026-04-25 01:53 14.02725 99.23035 33710 ft 466 kts 276°
2026-04-25 01:53 14.03042 99.19718 34141 ft 464 kts 276°
2026-04-25 01:53 14.03355 99.16414 34518 ft 463 kts 276°
2026-04-25 01:53 14.03666 99.13118 34885 ft 462 kts 276°
2026-04-25 01:54 14.03975 99.09834 35259 ft 460 kts 276°
2026-04-25 01:54 14.04283 99.06556 35646 ft 459 kts 276°
2026-04-25 01:54 14.04590 99.03294 36038 ft 457 kts 276°
2026-04-25 01:54 14.04896 99.00042 36441 ft 455 kts 276°
2026-04-25 01:55 14.05190 98.96811 36858 ft 452 kts 275°
2026-04-25 01:55 14.05438 98.93590 37225 ft 451 kts 274°
2026-04-25 01:55 14.05653 98.90367 37562 ft 450 kts 274°
2026-04-25 01:55 14.05853 98.87157 37913 ft 449 kts 274°
2026-04-25 01:56 14.06049 98.83954 38250 ft 448 kts 274°
2026-04-25 01:56 14.06245 98.80760 38588 ft 446 kts 274°
2026-04-25 01:56 14.06445 98.77570 38885 ft 445 kts 274°
2026-04-25 01:56 14.06647 98.74390 39122 ft 445 kts 274°
2026-04-25 01:57 14.07055 98.68036 39590 ft 444 kts 274°
2026-04-25 01:57 14.07259 98.64865 39827 ft 444 kts 274°
2026-04-25 01:57 14.07464 98.61690 39964 ft 445 kts 274°
2026-04-25 01:58 14.07669 98.58499 39969 ft 446 kts 274°
2026-04-25 01:58 14.08075 98.52157 39969 ft 447 kts 274°
2026-04-25 01:59 14.08480 98.45772 39967 ft 447 kts 274°
2026-04-25 01:59 14.08884 98.39385 39968 ft 447 kts 274°
2026-04-25 02:00 14.09286 98.32997 39965 ft 447 kts 274°
2026-04-25 02:00 14.09688 98.26609 39957 ft 447 kts 273°
2026-04-25 02:01 14.09304 98.20248 39962 ft 446 kts 258°
2026-04-25 02:01 14.07261 98.14216 39942 ft 447 kts 248°
2026-04-25 02:02 14.04699 98.08346 39949 ft 451 kts 245°
2026-04-25 02:02 14.02048 98.02492 39950 ft 451 kts 245°
2026-04-25 02:03 13.99412 97.96621 39953 ft 451 kts 246°
2026-04-25 02:03 13.96801 97.90750 39951 ft 451 kts 246°
2026-04-25 02:04 13.94197 97.84877 39947 ft 451 kts 246°
2026-04-25 02:04 13.91593 97.79007 39947 ft 451 kts 246°
2026-04-25 02:05 13.88986 97.73137 39948 ft 451 kts 246°
2026-04-25 02:05 13.86377 97.67269 39949 ft 451 kts 246°
2026-04-25 02:06 13.83784 97.61442 39945 ft 451 kts 246°
2026-04-25 02:06 13.81174 97.55581 39946 ft 450 kts 246°
2026-04-25 02:07 13.78567 97.49732 39949 ft 449 kts 246°
2026-04-25 02:07 13.75966 97.43899 39949 ft 449 kts 246°
2026-04-25 02:08 13.73358 97.38057 39944 ft 450 kts 246°
2026-04-25 02:08 13.70740 97.32195 39949 ft 452 kts 246°
2026-04-25 02:09 13.68113 97.26317 39948 ft 452 kts 246°
2026-04-25 02:09 13.65483 97.20438 39947 ft 452 kts 246°
2026-04-25 02:10 13.62852 97.14562 39950 ft 452 kts 246°
2026-04-25 02:10 13.60220 97.08686 39951 ft 452 kts 246°
2026-04-25 02:11 13.57589 97.02818 39947 ft 452 kts 246°
2026-04-25 02:11 13.54954 96.96944 39948 ft 452 kts 246°
2026-04-25 02:12 13.52319 96.91075 39948 ft 452 kts 246°
2026-04-25 02:12 13.49680 96.85204 39945 ft 452 kts 246°
2026-04-25 02:13 13.47041 96.79334 39945 ft 452 kts 245°
2026-04-25 02:13 13.44403 96.73472 39946 ft 452 kts 245°
2026-04-25 02:14 13.41762 96.67607 39945 ft 452 kts 245°
2026-04-25 02:14 13.39136 96.61781 39945 ft 453 kts 246°
2026-04-25 02:15 13.36486 96.55903 39949 ft 454 kts 245°
2026-04-25 02:15 13.33834 96.50027 39941 ft 454 kts 245°
2026-04-25 02:16 13.31177 96.44146 39937 ft 454 kts 245°
2026-04-25 02:16 13.28514 96.38254 39944 ft 456 kts 245°
2026-04-25 02:17 13.25847 96.32356 39943 ft 456 kts 245°
2026-04-25 02:17 13.23176 96.26455 39941 ft 456 kts 245°
2026-04-25 02:18 13.20504 96.20556 39941 ft 456 kts 245°
2026-04-25 02:18 13.17831 96.14659 39942 ft 456 kts 245°
2026-04-25 02:19 13.15158 96.08766 39944 ft 456 kts 245°
2026-04-25 02:19 13.12481 96.02871 39943 ft 456 kts 245°
2026-04-25 02:20 13.09807 95.96984 39941 ft 456 kts 245°
2026-04-25 02:20 13.07581 95.92087 39938 ft 455 kts 245°
2026-04-25 02:21 13.04903 95.86199 39938 ft 457 kts 245°
2026-04-25 02:21 13.02212 95.80286 39938 ft 458 kts 245°
2026-04-25 02:22 12.99514 95.74365 39939 ft 458 kts 245°
2026-04-25 02:22 12.96816 95.68446 39942 ft 458 kts 245°
2026-04-25 02:23 12.94120 95.62537 39938 ft 457 kts 245°
2026-04-25 02:23 12.91424 95.56629 39940 ft 457 kts 245°
2026-04-25 02:24 12.88728 95.50728 39936 ft 457 kts 245°
2026-04-25 02:24 12.86042 95.44818 39941 ft 457 kts 246°
2026-04-25 02:25 12.83407 95.38933 39939 ft 457 kts 246°
2026-04-25 02:25 12.80755 95.33003 39940 ft 457 kts 245°
2026-04-25 02:26 12.78102 95.27080 39936 ft 458 kts 246°
2026-04-25 02:26 12.75442 95.21153 39939 ft 458 kts 245°
2026-04-25 02:27 12.72780 95.15228 39937 ft 458 kts 245°
2026-04-25 02:27 12.70114 95.09298 39937 ft 459 kts 246°
2026-04-25 02:28 12.67437 95.03348 39943 ft 460 kts 246°
2026-04-25 02:28 12.64756 94.97391 39940 ft 460 kts 246°
2026-04-25 02:29 12.62075 94.91440 39938 ft 460 kts 246°
2026-04-25 02:29 12.59392 94.85489 39938 ft 460 kts 246°
2026-04-25 02:30 12.56707 94.79536 39937 ft 460 kts 246°
2026-04-25 02:30 12.54023 94.73590 39935 ft 460 kts 246°
2026-04-25 02:31 12.51334 94.67640 39942 ft 460 kts 246°
2026-04-25 02:31 12.48645 94.61691 39937 ft 460 kts 245°
2026-04-25 02:32 12.45955 94.55745 39934 ft 460 kts 246°
2026-04-25 02:32 12.43266 94.49806 39935 ft 460 kts 246°
2026-04-25 02:33 12.40577 94.43869 39941 ft 460 kts 246°
2026-04-25 02:33 12.37898 94.37935 39938 ft 460 kts 245°
2026-04-25 02:34 12.35228 94.31985 39931 ft 461 kts 246°
2026-04-25 02:34 12.32548 94.26011 39937 ft 463 kts 246°
2026-04-25 02:35 12.29859 94.20027 39940 ft 463 kts 246°
2026-04-25 02:35 12.27170 94.14050 39940 ft 462 kts 246°
2026-04-25 02:36 12.24481 94.08078 39934 ft 462 kts 245°
2026-04-25 02:36 12.21794 94.02108 39934 ft 462 kts 246°
2026-04-25 02:37 12.19152 93.96165 39939 ft 462 kts 246°
2026-04-25 02:37 12.16503 93.90179 39936 ft 462 kts 246°
2026-04-25 02:38 12.13850 93.84195 39933 ft 462 kts 246°
2026-04-25 02:38 12.11193 93.78213 39935 ft 462 kts 246°
2026-04-25 02:39 12.08535 93.72235 39937 ft 462 kts 246°
2026-04-25 02:39 12.05876 93.66260 39933 ft 462 kts 246°
2026-04-25 02:40 12.03215 93.60281 39937 ft 462 kts 246°
2026-04-25 02:40 12.00553 93.54307 39935 ft 463 kts 246°
2026-04-25 02:41 11.97880 93.48311 39936 ft 464 kts 246°
2026-04-25 02:41 11.95201 93.42306 39936 ft 465 kts 246°
2026-04-25 02:42 11.92522 93.36305 39936 ft 464 kts 246°
2026-04-25 02:42 11.89840 93.30301 39935 ft 465 kts 246°
2026-04-25 02:43 11.87158 93.24301 39932 ft 465 kts 246°
2026-04-25 02:43 11.84473 93.18299 39937 ft 464 kts 246°
2026-04-25 02:44 11.81789 93.12302 39938 ft 465 kts 246°
2026-04-25 02:44 11.79104 93.06308 39938 ft 465 kts 246°
2026-04-25 02:45 11.76432 93.00347 39934 ft 465 kts 245°
2026-04-25 02:45 11.73745 92.94354 39934 ft 465 kts 246°
2026-04-25 02:46 11.71054 92.88359 39923 ft 465 kts 246°
2026-04-25 02:46 11.68361 92.82362 39927 ft 465 kts 245°
2026-04-25 02:47 11.65674 92.76368 39912 ft 465 kts 247°
2026-04-25 02:47 11.63520 92.70159 39912 ft 464 kts 252°
2026-04-25 02:48 11.61566 92.63884 39914 ft 465 kts 253°
2026-04-25 02:48 11.59648 92.57591 39914 ft 464 kts 253°
2026-04-25 02:49 11.57726 92.51303 39915 ft 465 kts 253°
2026-04-25 02:49 11.55792 92.45013 39918 ft 465 kts 253°
2026-04-25 02:50 11.53853 92.38728 39917 ft 465 kts 252°
2026-04-25 02:50 11.51912 92.32439 39919 ft 465 kts 253°
2026-04-25 02:51 11.49971 92.26156 39923 ft 465 kts 253°
2026-04-25 02:51 11.48028 92.19871 39923 ft 465 kts 252°
2026-04-25 02:52 11.46085 92.13589 39927 ft 465 kts 253°
2026-04-25 02:52 11.44140 92.07308 39922 ft 465 kts 253°
2026-04-25 02:53 11.42207 92.01070 39927 ft 465 kts 253°
2026-04-25 02:53 11.40259 91.94790 39926 ft 465 kts 253°
2026-04-25 02:54 11.38310 91.88509 39932 ft 464 kts 252°
2026-04-25 02:54 11.36368 91.82258 39927 ft 462 kts 252°
2026-04-25 02:55 11.34377 91.76047 39924 ft 461 kts 251°
2026-04-25 02:55 11.32288 91.69871 39923 ft 461 kts 251°
2026-04-25 02:56 11.30183 91.63693 39921 ft 463 kts 251°
2026-04-25 02:56 11.28071 91.57466 39928 ft 466 kts 251°
2026-04-25 02:57 11.25960 91.51223 39928 ft 466 kts 251°
2026-04-25 02:57 11.23849 91.44978 39923 ft 466 kts 251°
2026-04-25 02:58 11.21741 91.38749 39928 ft 465 kts 251°
2026-04-25 02:58 11.19630 91.32516 39925 ft 465 kts 251°
2026-04-25 02:59 11.17519 91.26286 39925 ft 465 kts 251°
2026-04-25 02:59 11.15407 91.20061 39925 ft 465 kts 251°
2026-04-25 03:00 11.13292 91.13832 39926 ft 465 kts 251°
2026-04-25 03:00 11.11195 91.07659 39927 ft 464 kts 251°
2026-04-25 03:01 11.09084 91.01452 39925 ft 463 kts 251°
2026-04-25 03:01 11.06976 90.95255 39925 ft 463 kts 251°
2026-04-25 03:02 11.04867 90.89061 39925 ft 463 kts 251°
2026-04-25 03:02 11.02756 90.82866 39926 ft 463 kts 250°
2026-04-25 03:03 11.00643 90.76672 39926 ft 463 kts 250°
2026-04-25 03:03 10.98533 90.70487 39925 ft 462 kts 250°
2026-04-25 03:04 10.96425 90.64314 39921 ft 461 kts 250°
2026-04-25 03:04 10.94318 90.58150 39921 ft 461 kts 250°
2026-04-25 03:05 10.91141 90.48862 39922 ft 465 kts 251°
2026-04-25 03:05 10.89011 90.42641 39923 ft 466 kts 251°
2026-04-25 03:06 10.86879 90.36418 39921 ft 465 kts 250°
2026-04-25 03:06 10.84752 90.30213 39924 ft 464 kts 250°
2026-04-25 03:07 10.82627 90.24020 39923 ft 464 kts 250°
2026-04-25 03:07 10.80501 90.17829 39926 ft 464 kts 250°
2026-04-25 03:08 10.78373 90.11637 39924 ft 464 kts 250°
2026-04-25 03:08 10.76245 90.05449 39923 ft 464 kts 250°
2026-04-25 03:09 10.74109 89.99260 39928 ft 464 kts 250°
2026-04-25 03:09 10.72277 89.94148 39923 ft 462 kts 249°
2026-04-25 03:10 10.69677 89.87036 39923 ft 461 kts 249°
2026-04-25 03:10 10.67439 89.80919 39925 ft 462 kts 249°
2026-04-25 03:11 10.65571 89.75796 39925 ft 462 kts 249°
2026-04-25 03:11 10.62980 89.68684 39924 ft 462 kts 249°
2026-04-25 03:12 10.61111 89.63556 39926 ft 462 kts 249°
2026-04-25 03:12 10.58880 89.57439 39926 ft 461 kts 249°
2026-04-25 03:13 10.56648 89.51326 39918 ft 462 kts 249°
2026-04-25 03:13 10.54402 89.45179 39922 ft 465 kts 249°
2026-04-25 03:14 10.52147 89.39010 39923 ft 466 kts 249°
2026-04-25 03:14 10.49907 89.32884 39926 ft 466 kts 249°
2026-04-25 03:15 10.47649 89.26716 39922 ft 466 kts 249°
2026-04-25 03:15 10.45391 89.20553 39926 ft 465 kts 249°
2026-04-25 03:16 10.43133 89.14392 39922 ft 465 kts 249°
2026-04-25 03:16 10.40876 89.08238 39921 ft 465 kts 249°
2026-04-25 03:17 10.38619 89.02089 39927 ft 465 kts 249°
2026-04-25 03:17 10.36360 88.95937 39921 ft 465 kts 249°
2026-04-25 03:18 10.34098 88.89783 39927 ft 465 kts 249°
2026-04-25 03:18 10.31836 88.83633 39926 ft 465 kts 249°
2026-04-25 03:19 10.29581 88.77503 39925 ft 462 kts 249°
2026-04-25 03:19 10.27332 88.71396 39923 ft 462 kts 249°
2026-04-25 03:20 10.25082 88.65290 39923 ft 462 kts 249°
2026-04-25 03:20 10.22829 88.59181 39925 ft 462 kts 249°
2026-04-25 03:21 10.20577 88.53076 39925 ft 462 kts 249°
2026-04-25 03:21 10.18323 88.46967 39922 ft 463 kts 248°
2026-04-25 03:22 10.16064 88.40846 39927 ft 463 kts 248°
2026-04-25 03:22 10.13804 88.34727 39923 ft 463 kts 248°
2026-04-25 03:23 10.11558 88.28650 39926 ft 463 kts 248°
2026-04-25 03:23 10.09295 88.22531 39927 ft 463 kts 248°
2026-04-25 03:24 10.07034 88.16421 39925 ft 463 kts 248°
2026-04-25 03:24 10.04770 88.10307 39923 ft 463 kts 248°
2026-04-25 03:25 10.02507 88.04198 39927 ft 462 kts 248°
2026-04-25 03:25 10.00244 87.98096 39927 ft 462 kts 248°
2026-04-25 03:26 9.97984 87.92004 39920 ft 462 kts 248°
2026-04-25 03:26 9.95720 87.85905 39924 ft 462 kts 248°
2026-04-25 03:27 9.93456 87.79810 39923 ft 462 kts 248°
2026-04-25 03:27 9.91192 87.73719 39923 ft 462 kts 248°
2026-04-25 03:28 9.88925 87.67624 39925 ft 461 kts 248°
2026-04-25 03:28 9.86664 87.61549 39923 ft 460 kts 248°
2026-04-25 03:29 9.84405 87.55484 39921 ft 460 kts 248°
2026-04-25 03:29 9.82145 87.49419 39923 ft 460 kts 248°
2026-04-25 03:30 9.79877 87.43337 39924 ft 462 kts 248°
2026-04-25 03:30 9.77603 87.37241 39921 ft 463 kts 248°
2026-04-25 03:31 9.75387 87.31111 39926 ft 463 kts 249°
2026-04-25 03:31 9.73279 87.25005 39921 ft 461 kts 249°
2026-04-25 03:32 9.71172 87.18872 39924 ft 461 kts 249°
2026-04-25 03:32 9.69052 87.12742 39925 ft 461 kts 249°
2026-04-25 03:33 9.66926 87.06617 39924 ft 461 kts 249°
2026-04-25 03:33 9.64795 87.00491 39919 ft 461 kts 249°
2026-04-25 03:34 9.62665 86.94367 39924 ft 461 kts 249°
2026-04-25 03:34 9.60536 86.88251 39922 ft 459 kts 249°
2026-04-25 03:35 9.58413 86.82153 39922 ft 459 kts 249°
2026-04-25 03:35 9.56288 86.76058 39923 ft 459 kts 249°
2026-04-25 03:36 9.54163 86.69961 39918 ft 459 kts 249°
2026-04-25 03:36 9.52035 86.63862 39921 ft 459 kts 249°
2026-04-25 03:37 9.49908 86.57770 39925 ft 459 kts 249°
2026-04-25 03:37 9.47779 86.51675 39921 ft 458 kts 249°
2026-04-25 03:38 9.45655 86.45600 39921 ft 457 kts 249°
2026-04-25 03:38 9.43547 86.39572 39920 ft 458 kts 249°
2026-04-25 03:39 9.41416 86.33486 39922 ft 459 kts 249°
2026-04-25 03:39 9.39281 86.27389 39922 ft 459 kts 249°
2026-04-25 03:40 9.37146 86.21295 39924 ft 459 kts 249°
2026-04-25 03:40 9.35009 86.15200 39925 ft 459 kts 249°
2026-04-25 03:41 9.32877 86.09122 39920 ft 458 kts 249°
2026-04-25 03:41 9.30747 86.03053 39922 ft 457 kts 249°
2026-04-25 03:42 9.28614 85.96984 39926 ft 457 kts 249°
2026-04-25 03:42 9.26483 85.90919 39923 ft 458 kts 249°
2026-04-25 03:43 9.24362 85.84844 39925 ft 458 kts 249°
2026-04-25 03:43 9.22289 85.78755 39925 ft 458 kts 249°
2026-04-25 03:44 9.20226 85.72660 39923 ft 458 kts 249°
2026-04-25 03:44 9.18158 85.66569 39922 ft 458 kts 249°
2026-04-25 03:45 9.16086 85.60480 39923 ft 458 kts 249°
2026-04-25 03:45 9.14012 85.54393 39922 ft 458 kts 249°
2026-04-25 03:46 9.11935 85.48303 39923 ft 458 kts 249°
2026-04-25 03:46 9.09858 85.42214 39920 ft 458 kts 249°
2026-04-25 03:47 9.07786 85.36141 39922 ft 456 kts 249°
2026-04-25 03:47 9.05733 85.30132 39917 ft 455 kts 249°
2026-04-25 03:48 9.03662 85.24075 39923 ft 456 kts 249°
2026-04-25 03:48 9.01586 85.18002 39921 ft 457 kts 249°
2026-04-25 03:49 8.99509 85.11933 39924 ft 457 kts 249°
2026-04-25 03:49 8.97429 85.05856 39925 ft 457 kts 249°
2026-04-25 03:50 8.95352 84.99792 39923 ft 455 kts 249°
2026-04-25 03:50 8.93282 84.93753 39923 ft 454 kts 249°
2026-04-25 03:51 8.91212 84.87716 39923 ft 454 kts 249°
2026-04-25 03:51 8.89142 84.81684 39925 ft 454 kts 249°
2026-04-25 03:52 8.87089 84.75645 39924 ft 454 kts 249°
2026-04-25 03:52 8.85048 84.69603 39925 ft 454 kts 249°
2026-04-25 03:53 8.83006 84.63564 39921 ft 453 kts 249°
2026-04-25 03:53 8.80973 84.57556 39923 ft 450 kts 249°
2026-04-25 03:54 8.78947 84.51571 39923 ft 450 kts 249°
2026-04-25 03:54 8.76919 84.45588 39920 ft 450 kts 249°
2026-04-25 03:55 8.74892 84.39607 39924 ft 450 kts 249°
2026-04-25 03:55 8.72876 84.33664 39920 ft 450 kts 249°
2026-04-25 03:56 8.70844 84.27679 39926 ft 450 kts 249°
2026-04-25 03:56 8.68816 84.21706 39920 ft 449 kts 249°
2026-04-25 03:57 8.66788 84.15738 39918 ft 449 kts 249°
2026-04-25 03:57 8.64756 84.09759 39923 ft 450 kts 249°
2026-04-25 03:58 8.62719 84.03771 39920 ft 451 kts 249°
2026-04-25 03:58 8.60681 83.97783 39921 ft 451 kts 249°
2026-04-25 03:59 8.58641 83.91793 39924 ft 451 kts 249°
2026-04-25 03:59 8.56601 83.85808 39922 ft 451 kts 250°
2026-04-25 04:00 8.54558 83.79815 39923 ft 451 kts 249°
2026-04-25 04:00 8.52861 83.74839 39926 ft 451 kts 249°
2026-04-25 04:01 8.50817 83.68848 39921 ft 451 kts 249°
2026-04-25 04:01 8.48772 83.62859 39925 ft 451 kts 249°
2026-04-25 04:02 8.46724 83.56867 39925 ft 451 kts 249°
2026-04-25 04:02 8.44678 83.50881 39920 ft 451 kts 250°
2026-04-25 04:03 8.42627 83.44883 39923 ft 452 kts 250°
2026-04-25 04:03 8.40571 83.38877 39923 ft 452 kts 250°
2026-04-25 04:04 8.38517 83.32877 39921 ft 452 kts 250°
2026-04-25 04:04 8.36461 83.26876 39924 ft 452 kts 250°
2026-04-25 04:05 8.34406 83.20878 39918 ft 452 kts 250°
2026-04-25 04:05 8.32347 83.14876 39922 ft 452 kts 250°
2026-04-25 04:06 8.30286 83.08869 39922 ft 453 kts 250°
2026-04-25 04:06 8.28220 83.02853 39921 ft 454 kts 250°
2026-04-25 04:07 8.26154 82.96837 39924 ft 454 kts 250°
2026-04-25 04:07 8.24083 82.90813 39923 ft 454 kts 250°
2026-04-25 04:08 8.22015 82.84837 39922 ft 454 kts 249°
2026-04-25 04:08 8.19911 82.78829 39922 ft 454 kts 249°
2026-04-25 04:09 8.17804 82.72819 39922 ft 455 kts 249°
2026-04-25 04:09 8.15678 82.66758 39923 ft 455 kts 249°
2026-04-25 04:10 8.13564 82.60732 39922 ft 455 kts 249°
2026-04-25 04:10 8.11451 82.54711 39920 ft 455 kts 249°
2026-04-25 04:11 8.08278 82.45679 39919 ft 455 kts 249°
2026-04-25 04:12 8.06178 82.39703 39925 ft 455 kts 249°
2026-04-25 04:12 8.04062 82.33685 39922 ft 455 kts 249°
2026-04-25 04:13 8.01949 82.27680 39918 ft 454 kts 249°
2026-04-25 04:13 7.99834 82.21672 39921 ft 454 kts 249°
2026-04-25 04:14 7.97719 82.15667 39920 ft 454 kts 249°
2026-04-25 04:14 7.95604 82.09665 39920 ft 454 kts 249°
2026-04-25 04:15 7.93486 82.03658 39922 ft 454 kts 249°
2026-04-25 04:15 7.91369 81.97656 39919 ft 454 kts 249°
2026-04-25 04:16 7.89250 81.91652 39917 ft 454 kts 249°
2026-04-25 04:16 7.87132 81.85652 39918 ft 454 kts 249°
2026-04-25 04:17 7.85012 81.79651 39919 ft 454 kts 249°
2026-04-25 04:17 7.82900 81.73675 39765 ft 446 kts 249°
2026-04-25 04:17 7.81881 81.70793 39595 ft 438 kts 249°
2026-04-25 04:18 7.80863 81.67913 39238 ft 436 kts 249°
2026-04-25 04:18 7.79828 81.64989 38719 ft 438 kts 249°
2026-04-25 04:18 7.78817 81.62132 38204 ft 439 kts 249°
2026-04-25 04:18 7.77792 81.59236 37716 ft 438 kts 249°
2026-04-25 04:19 7.76770 81.56348 37252 ft 437 kts 249°
2026-04-25 04:19 7.75749 81.53465 36775 ft 436 kts 249°
2026-04-25 04:19 7.74729 81.50586 36300 ft 436 kts 249°
2026-04-25 04:19 7.73790 81.47677 35807 ft 437 kts 254°
2026-04-25 04:20 7.73230 81.44659 35296 ft 439 kts 261°
2026-04-25 04:20 7.72879 81.41593 34724 ft 442 kts 262°
2026-04-25 04:20 7.72564 81.38499 34080 ft 446 kts 262°
2026-04-25 04:20 7.72249 81.35376 33322 ft 450 kts 262°
2026-04-25 04:21 7.71929 81.32225 32599 ft 453 kts 262°
2026-04-25 04:21 7.71604 81.29056 31870 ft 455 kts 262°
2026-04-25 04:21 7.71275 81.25873 31197 ft 457 kts 262°
2026-04-25 04:21 7.70947 81.22698 30702 ft 454 kts 262°
2026-04-25 04:22 7.70620 81.19543 30164 ft 452 kts 262°
2026-04-25 04:22 7.70294 81.16400 29560 ft 450 kts 262°
2026-04-25 04:22 7.69916 81.13284 29006 ft 445 kts 257°
2026-04-25 04:22 7.69123 81.10288 28456 ft 440 kts 250°
2026-04-25 04:23 7.68126 81.07385 27905 ft 437 kts 248°
2026-04-25 04:23 7.67101 81.04517 27365 ft 434 kts 248°
2026-04-25 04:23 7.66079 81.01661 26841 ft 432 kts 249°
2026-04-25 04:23 7.65064 80.98819 26313 ft 430 kts 249°
2026-04-25 04:24 7.64056 80.95988 25747 ft 429 kts 249°
2026-04-25 04:24 7.63049 80.93156 25195 ft 428 kts 249°
2026-04-25 04:24 7.62045 80.90331 24661 ft 428 kts 249°
2026-04-25 04:24 7.61044 80.87513 24116 ft 427 kts 249°
2026-04-25 04:25 7.60056 80.84730 23569 ft 427 kts 249°
2026-04-25 04:25 7.59054 80.81911 22953 ft 426 kts 250°
2026-04-25 04:25 7.58059 80.79108 22415 ft 423 kts 249°
2026-04-25 04:25 7.57072 80.76332 21857 ft 419 kts 249°
2026-04-25 04:26 7.56093 80.73575 21335 ft 416 kts 249°
2026-04-25 04:26 7.55121 80.70842 20805 ft 413 kts 249°
2026-04-25 04:26 7.54156 80.68125 20272 ft 410 kts 249°
2026-04-25 04:26 7.53196 80.65428 19754 ft 407 kts 249°
2026-04-25 04:27 7.52243 80.62749 19218 ft 405 kts 249°
2026-04-25 04:27 7.51297 80.60087 18709 ft 403 kts 249°
2026-04-25 04:27 7.50353 80.57437 18186 ft 401 kts 249°
2026-04-25 04:27 7.49416 80.54803 17591 ft 398 kts 249°
2026-04-25 04:28 7.48486 80.52192 17072 ft 393 kts 249°
2026-04-25 04:28 7.47568 80.49613 16559 ft 389 kts 249°
2026-04-25 04:28 7.46658 80.47059 16047 ft 385 kts 249°
2026-04-25 04:28 7.45761 80.44539 15530 ft 380 kts 249°
2026-04-25 04:29 7.44871 80.42043 15031 ft 377 kts 249°
2026-04-25 04:29 7.43989 80.39568 14499 ft 373 kts 250°
2026-04-25 04:29 7.43115 80.37118 14019 ft 370 kts 250°
2026-04-25 04:29 7.42251 80.34694 13501 ft 366 kts 250°
2026-04-25 04:30 7.41396 80.32296 12984 ft 361 kts 250°
2026-04-25 04:30 7.40553 80.29933 12506 ft 356 kts 250°
2026-04-25 04:30 7.39725 80.27610 12097 ft 349 kts 250°
2026-04-25 04:30 7.38907 80.25317 11659 ft 346 kts 250°
2026-04-25 04:31 7.38095 80.23043 11171 ft 344 kts 250°
2026-04-25 04:31 7.37289 80.20786 10705 ft 341 kts 250°
2026-04-25 04:31 7.36352 80.18620 10456 ft 330 kts 238°
2026-04-25 04:31 7.34909 80.16913 10370 ft 313 kts 221°
2026-04-25 04:32 7.33256 80.15556 10227 ft 300 kts 217°
2026-04-25 04:32 7.31609 80.14294 9956 ft 297 kts 216°
2026-04-25 04:32 7.29954 80.13035 9537 ft 298 kts 216°
2026-04-25 04:32 7.28309 80.11778 9172 ft 296 kts 216°
2026-04-25 04:33 7.26673 80.10524 8819 ft 294 kts 216°
2026-04-25 04:33 7.25048 80.09274 8452 ft 293 kts 216°
2026-04-25 04:33 7.23433 80.08031 8124 ft 291 kts 216°
2026-04-25 04:33 7.21848 80.06810 7770 ft 290 kts 216°
2026-04-25 04:34 7.20226 80.05559 7412 ft 290 kts 216°
2026-04-25 04:34 7.18655 80.04349 7103 ft 287 kts 216°
2026-04-25 04:34 7.17103 80.03152 7019 ft 274 kts 216°
2026-04-25 04:34 7.15626 80.02013 6839 ft 261 kts 216°
2026-04-25 04:35 7.14206 80.00918 6514 ft 255 kts 216°
2026-04-25 04:35 7.12795 79.99831 6204 ft 255 kts 216°
2026-04-25 04:35 7.11366 79.98734 5996 ft 263 kts 216°
2026-04-25 04:35 7.09896 79.97606 5578 ft 267 kts 216°
2026-04-25 04:36 7.08427 79.96480 5277 ft 264 kts 216°
2026-04-25 04:36 7.06973 79.95366 4946 ft 263 kts 216°
2026-04-25 04:36 7.05523 79.94255 4618 ft 261 kts 216°
2026-04-25 04:36 7.04085 79.93146 4295 ft 260 kts 218°
2026-04-25 04:37 7.02927 79.91775 4033 ft 256 kts 245°
2026-04-25 04:37 7.02564 79.90063 3890 ft 248 kts 266°
2026-04-25 04:37 7.02534 79.88344 3652 ft 245 kts 270°
2026-04-25 04:37 7.02554 79.86624 3306 ft 248 kts 271°
2026-04-25 04:38 7.02717 79.84871 2838 ft 254 kts 287°
2026-04-25 04:38 7.03640 79.83431 2634 ft 242 kts 322°
2026-04-25 04:38 7.05077 79.82665 2367 ft 229 kts 339°
2026-04-25 04:38 7.06561 79.82124 2044 ft 223 kts 341°
2026-04-25 04:39 7.08022 79.81712 1913 ft 214 kts 359°
2026-04-25 04:39 7.09447 79.81961 1768 ft 205 kts 18°
2026-04-25 04:39 7.10697 79.82540 1527 ft 191 kts 37°
2026-04-25 04:39 7.11679 79.83373 1279 ft 178 kts 41°
2026-04-25 04:40 7.12595 79.84130 1054 ft 163 kts 38°
2026-04-25 04:40 7.13463 79.84779 870 ft 148 kts 38°
2026-04-25 04:40 7.14244 79.85391 693 ft 137 kts 31°
2026-04-25 04:40 7.15034 79.85888 486 ft 134 kts 38°
2026-04-25 04:41 7.15733 79.86511 372 ft 136 kts 42°
2026-04-25 04:41 7.16469 79.87111 184 ft 136 kts 38°
2026-04-25 04:41 7.17216 79.87687 34 ft 130 kts 38°
2026-04-25 04:41 7.17798 79.88133 34 ft 77 kts 37°
2026-04-25 04:42 7.18130 79.88386 32 ft 54 kts 37°
2026-04-25 04:42 7.18411 79.88601 31 ft 49 kts 37°
2026-04-25 04:42 7.18655 79.88788 33 ft 26 kts 37°
2026-04-25 04:42 7.18679 79.88846 33 ft 8 kts 103°
2026-04-25 04:43 7.18647 79.88905 32 ft 11 kts 128°
2026-04-25 04:43 7.18599 79.88954 32 ft 8 kts 162°
2026-04-25 04:43 7.18552 79.88933 32 ft 8 kts 215°
2026-04-25 04:43 7.18500 79.88894 32 ft 11 kts 217°
2026-04-25 04:44 7.18432 79.88843 31 ft 14 kts 217°
2026-04-25 04:44 7.18349 79.88780 31 ft 16 kts 217°
2026-04-25 04:44 7.18253 79.88707 31 ft 18 kts 218°
2026-04-25 04:44 7.18148 79.88626 31 ft 20 kts 217°
2026-04-25 04:45 7.18029 79.88535 31 ft 22 kts 217°
2026-04-25 04:45 7.17916 79.88449 31 ft 16 kts 217°
2026-04-25 04:45 7.17860 79.88436 31 ft 7 kts 149°
2026-04-25 04:45 7.17823 79.88483 31 ft 10 kts 127°
2026-04-25 04:46 7.17796 79.88518 31 ft 1 kts 127°
2026-04-25 04:46 7.17786 79.88526 31 ft 2 kts 150°
2026-04-25 04:46 7.17769 79.88526 31 ft 3 kts 188°
2026-04-25 04:46 7.17743 79.88514 31 ft 6 kts 211°
2026-04-25 04:47 7.17728 79.88503 31 ft 2 kts 217°
2026-04-25 04:47 7.17709 79.88488 31 ft 5 kts 217°
2026-04-25 04:47 7.17701 79.88482 31 ft 1 kts 217°
2026-04-25 04:47 7.17690 79.88474 31 ft 0 kts 217°
2026-04-25 04:48 7.17690 79.88473 31 ft 0 kts 217°